Temperature
15 15 15 15 15 15 15 15 16 16 16 16 15 15 15 15 15 15 15 15 15 15 15 15 15 15 14 14 14 14 14 14 14 14 14 14 14 14
15 15 15 15 15 15 15 15 15 16 16 16 15 15 15 15 15 15 15 15 15 15 15 15 15 14 14 14 14 14 14 14 14 14 14 13 13 13
15 15 15 15 15 15 15 15 15 15 15 15 15 15 14 14 14 14 14 14 14 14 15 14 14 14 14 14 14 14 13 13 13 13 13 13 13 13
14 14 14 15 14 15 15 15 15 15 15 15 14 14 14 14 14 14 14 14 14 14 14 14 14 14 14 14 13 13 13 13 13 13 13 13 13 13
14 14 14 14 14 14 14 15 14 14 14 14 14 14 14 14 14 14 14 14 14 14 14 14 13 13 13 13 13 13 13 13 13 13 13 13 12 12
14 14 14 14 14 14 14 14 14 14 14 14 14 14 14 14 14 13 13 13 13 13 13 13 13 13 13 13 13 13 13 12 12 12 12 12 12 12
14 14 14 14 14 14 14 14 13 14 14 14 14 14 13 13 13 13 13 13 13 13 13 13 13 12 12 12 12 12 12 12 12 12 12 12 12 12
13 13 13 14 14 13 13 13 13 13 13 13 13 13 13 13 13 13 13 13 12 12 12 12 12 12 12 12 12 12 12 12 12 12 12 12 12 12
13 13 13 13 13 13 13 13 13 13 13 13 13 13 13 13 12 12 12 12 12 12 12 12 12 12 12 12 12 12 12 12 12 12 12 12 11 11
13 13 13 13 12 12 12 12 12 13 13 13 13 12 12 12 12 12 12 12 12 11 11 12 11 11 11 11 11 11 11 11 11 11 11 11 11 11
13 13 13 12 12 12 12 12 12 12 12 12 12 12 12 12 12 12 12 12 12 12 11 11 11 11 11 11 11 11 11 11 11 11 11 11 11 11
13 13 13 12 12 12 12 12 12 12 12 12 12 12 12 12 12 12 11 12 12 11 11 11 11 11 11 11 11 11 11 11 11 11 11 11 11 10
13 13 12 12 12 12 12 12 12 12 12 12 12 12 11 11 11 11 11 11 11 11 11 11 11 11 11 11 11 11 11 11 11 11 11 11 10 10
12 12 12 12 12 12 12 12 12 12 11 11 11 11 11 11 11 11 11 11 11 11 10 10 10 11 11 11 10 10 10 10 10 10 10 10 10 10
12 12 12 12 11 11 11 11 11 11 11 11 11 11 11 11 11 11 11 11 11 11 10 10 10 10 10 11 11 10 10 10 10 10 10 10 10 10
11 11 12 11 11 11 11 11 11 11 11 11 11 11 11 11 10 10 10 10 10 10 10 10 10 10 10 10 10 10 10 10 10 10 10 10 10 10
11 11 11 11 11 11 11 11 11 11 11 11 11 11 11 10 10 10 10 10 10 10 10 10 10 10 10 10 10 10 10 10 10 10 9 10 10 10
11 11 11 11 11 11 11 11 11 11 11 10 10 10 10 10 10 10 10 10 10 10 10 10 10 10 10 10 10 10 10 10 10 10 10 9 10 10
11 11 11 11 11 11 11 11 11 11 10 10 10 10 10 10 10 10 10 10 10 10 10 10 10 10 10 10 10 10 10 10 10 10 9 9 9 10
11 11 11 11 11 11 11 11 11 10 10 10 10 10 10 10 10 10 10 10 10 10 10 10 10 10 10 10 10 10 10 9 9 9 9 9 9 9
11 10 10 10 10 10 10 10 10 10 10 10 10 10 10 10 10 10 9 9 9 9 9 9 9 9 9 9 9 10 9 9 9 9 9 9 9 9
10 10 10 10 10 10 10 10 10 10 10 10 10 9 9 9 9 9 9 9 9 9 9 9 9 9 9 9 9 10 9 9 9 9 9 9 9 9
10 10 10 10 10 10 10 10 10 10 9 9 9 9 9 9 9 9 9 9 8 9 9 9 9 9 9 9 9 9 9 9 9 9 9 9 9 9
Wind_Speed
2 2 3 2 3 3 3 4 4 4 3 2 2 2 2 2 2 4 4 7 9 9 9 9 10 10 10 10 9 9 9 9 9 9 9 9 8 7
2 2 2 3 2 2 3 3 4 4 3 1 1 1 1 2 3 3 4 8 10 11 10 10 10 11 10 10 10 9 9 9 9 9 9 9 8 7
2 2 2 3 3 2 2 3 3 3 4 3 1 1 1 2 1 3 4 5 7 12 11 11 11 11 10 10 10 10 9 8 8 9 9 9 8 8
3 2 2 2 3 4 3 3 2 2 4 4 3 2 3 2 2 2 2 3 4 11 12 11 11 11 10 10 9 10 9 9 8 8 8 8 8 8
3 3 3 3 3 3 3 3 2 2 3 3 3 2 2 2 2 2 2 2 3 8 11 11 10 10 10 10 10 10 9 9 9 8 8 8 8 8
3 3 3 3 3 3 3 3 3 2 2 3 2 2 2 2 2 2 2 2 2 3 5 6 9 10 10 10 10 10 10 10 9 9 8 8 9 9
2 2 1 2 3 3 3 2 2 2 2 2 2 2 2 2 3 2 2 2 2 3 3 3 5 6 7 9 9 9 9 9 9 9 9 9 9 9
2 2 1 1 1 1 2 3 4 3 3 3 3 2 2 3 2 2 3 3 2 2 3 3 3 4 4 5 8 9 9 8 8 8 9 9 9 10
2 2 2 1 1 0 1 2 1 1 2 4 4 4 3 3 3 3 3 2 2 2 3 3 3 4 4 6 10 11 10 9 8 7 8 8 9 10
1 1 2 1 1 1 1 1 2 2 3 4 4 4 3 2 4 4 3 3 3 3 3 3 3 3 3 4 11 12 11 10 9 9 8 8 8 10
1 1 2 1 2 1 2 2 2 2 2 1 1 1 1 0 2 3 3 3 3 3 3 3 3 2 3 4 7 13 13 12 11 11 10 9 9 9
2 1 2 0 2 1 3 3 4 3 3 1 2 3 3 3 4 5 4 4 3 3 4 4 4 3 3 4 4 7 9 12 14 13 12 11 10 8
2 1 1 3 2 3 4 4 3 4 3 3 2 3 3 3 3 4 3 4 4 3 3 4 4 4 4 3 4 5 5 6 7 9 12 13 12 10
3 2 1 3 4 5 4 2 3 4 4 3 3 2 2 3 3 3 3 3 3 4 4 4 4 4 4 4 3 4 4 5 5 5 6 9 12 13
2 2 1 3 5 5 6 6 5 4 3 3 3 2 3 2 2 3 3 4 4 5 5 5 5 5 5 5 4 4 4 5 6 5 5 5 6 7
3 2 5 6 6 3 3 5 4 3 3 3 3 3 2 3 3 3 3 3 4 4 5 6 7 7 6 6 5 5 5 5 5 6 6 6 6 7
3 4 3 3 3 3 3 3 3 4 4 4 3 3 3 3 3 3 3 3 4 4 4 5 6 6 7 7 6 6 6 6 6 5 5 6 6 7
4 4 3 3 3 3 3 3 3 4 4 4 4 4 4 4 3 3 4 4 5 5 5 5 4 5 6 7 7 8 7 6 5 5 6 7 7 6
4 4 4 4 4 4 4 4 4 3 3 4 4 5 5 4 4 4 4 4 5 5 5 5 5 6 7 7 6 7 7 6 6 6 7 7 7 6
4 4 4 4 4 4 4 4 4 3 3 4 4 4 4 4 4 5 5 5 5 6 6 5 6 7 7 7 5 5 9 8 7 7 6 6 6 4
3 4 4 4 4 4 4 4 4 4 4 4 4 4 4 5 5 5 5 5 6 6 6 6 4 5 6 6 7 6 6 9 8 7 6 6 7 7
4 4 4 5 4 4 4 4 4 4 5 5 5 5 5 5 5 6 6 5 5 6 6 5 5 6 7 8 8 7 6 5 6 8 8 7 6 7
4 5 5 5 4 4 4 5 5 5 5 5 5 5 5 5 5 5 6 6 5 6 6 6 5 6 7 8 8 7 7 7 5 5 6 7 9 8
Wind_Direction
271 253 267 272 268 263 253 248 260 263 250 222 222 208 235 227 178 216 208 172 177 177 175 172 169 168 172 172 174 180 187 191 192 192 196 189 188 194
289 300 284 279 277 268 264 254 256 270 273 285 233 249 277 250 176 218 205 166 175 174 174 173 171 171 172 172 173 175 179 184 184 183 183 184 189 195
282 268 265 291 287 280 260 255 253 256 256 268 269 186 221 272 218 220 203 186 171 165 166 167 168 171 171 173 174 174 175 177 180 184 188 191 194 199
297 295 281 264 263 274 274 266 265 259 253 255 258 230 215 223 208 216 203 180 167 149 153 158 165 167 169 173 177 178 179 180 183 187 192 196 198 205
310 306 299 289 277 277 271 271 263 253 248 247 243 234 229 212 198 189 175 151 171 146 151 155 158 165 169 174 177 178 180 182 186 193 198 201 203 208
310 312 311 301 290 283 266 266 263 261 239 241 241 234 231 212 212 202 179 169 188 162 147 156 161 166 168 169 175 179 183 187 192 196 202 207 210 214
305 304 326 18 15 336 313 294 275 262 250 244 241 232 219 214 219 220 201 188 187 198 180 181 171 178 180 180 180 181 186 191 195 201 208 213 215 217
284 294 263 151 104 84 10 3 347 291 282 269 260 258 249 240 226 221 216 213 230 203 193 198 190 192 191 192 175 175 185 190 196 204 209 215 220 221
299 295 291 52 157 253 159 211 252 304 294 277 274 271 266 250 231 226 230 235 236 217 203 208 199 200 200 180 166 174 184 191 196 201 207 216 223 225
292 284 292 340 348 332 265 252 253 239 248 256 261 262 258 251 225 227 225 215 221 225 218 220 197 205 208 182 169 179 187 196 202 205 207 211 220 227
264 263 261 252 83 340 263 267 274 262 182 143 331 298 27 160 221 223 219 210 228 221 212 220 210 215 222 209 182 181 189 198 207 213 219 221 226 231
237 201 115 22 112 207 249 265 274 283 291 233 207 211 213 194 200 227 228 229 241 240 209 215 213 211 227 226 208 195 199 204 207 213 219 224 228 232
265 242 137 143 186 224 257 269 281 289 270 250 235 224 208 207 211 215 230 239 243 250 223 215 231 228 235 230 222 214 214 213 211 215 215 216 219 226
285 290 84 141 198 224 240 264 276 273 269 260 248 237 230 226 226 224 224 235 246 250 248 243 244 238 236 237 238 228 227 223 224 227 222 204 211 222
286 25 47 206 216 215 215 228 237 252 265 269 263 255 250 245 237 222 224 224 228 229 225 236 246 247 242 245 239 228 236 238 234 232 230 226 225 224
261 203 199 218 239 261 208 212 232 250 258 263 265 261 258 237 232 235 244 247 244 237 218 222 234 246 247 244 243 239 240 240 238 238 239 239 233 234
286 260 252 242 235 239 250 246 244 235 236 242 252 249 238 239 242 240 239 248 252 249 239 225 222 230 243 248 243 240 239 240 237 230 239 245 241 239
275 268 268 270 271 270 267 259 251 255 253 249 248 251 245 240 239 247 247 246 252 253 247 235 224 233 240 242 237 244 246 245 239 232 244 250 250 244
252 266 270 270 270 274 275 276 276 269 259 252 246 244 244 244 241 240 246 248 254 256 252 244 233 238 245 250 236 226 247 254 248 242 243 249 255 255
256 277 282 281 276 276 281 286 286 285 273 264 255 250 246 248 251 246 247 250 252 255 254 245 238 239 248 260 266 249 226 245 248 245 249 255 261 262
274 278 280 284 289 288 287 285 282 280 278 275 269 265 262 261 258 259 258 252 253 254 253 253 249 236 254 259 256 250 236 221 236 252 253 256 257 254
282 282 284 288 288 286 284 279 276 274 271 267 270 268 262 264 263 262 262 258 255 256 261 261 244 234 242 248 252 252 248 236 221 221 234 250 259 258
281 280 278 276 278 280 283 281 279 280 278 275 275 274 271 267 265 259 253 254 254 256 259 259 254 242 243 245 249 253 249 244 244 237 234 223 225 237
Height
1518 1518 1517 1518 1518 1517 1518 1518 1519 1518 1518 1519 1519 1519 1519 1519 1519 1519 1520 1520 1520 1521 1522 1524 1525 1526 1528 1529 1531 1532 1534 1536 1537 1538 1539 1541 1542 1543
1516 1516 1515 1516 1516 1515 1515 1516 1516 1516 1516 1517 1517 1517 1517 1517 1516 1517 1517 1517 1518 1519 1520 1521 1523 1524 1526 1527 1528 1530 1531 1533 1534 1535 1536 1538 1539 1540
1515 1514 1514 1513 1514 1514 1514 1514 1514 1514 1514 1515 1515 1514 1514 1514 1514 1514 1515 1515 1516 1516 1517 1519 1520 1521 1523 1524 1526 1527 1529 1530 1531 1533 1534 1535 1537 1538
1514 1513 1512 1512 1511 1512 1512 1512 1512 1512 1512 1512 1512 1512 1511 1511 1511 1512 1513 1513 1514 1514 1515 1516 1517 1519 1520 1522 1523 1525 1526 1528 1529 1530 1532 1533 1534 1535
1512 1511 1510 1510 1509 1510 1509 1510 1510 1510 1510 1510 1510 1510 1510 1510 1509 1510 1511 1511 1513 1513 1513 1514 1515 1517 1518 1520 1521 1522 1524 1526 1527 1528 1529 1530 1531 1532
1511 1510 1509 1508 1508 1508 1508 1507 1508 1508 1508 1508 1508 1508 1508 1508 1508 1508 1509 1509 1511 1512 1512 1513 1514 1515 1516 1517 1518 1520 1521 1523 1524 1525 1526 1528 1529 1530
1509 1508 1508 1507 1506 1506 1507 1506 1506 1506 1506 1506 1506 1506 1506 1506 1506 1506 1507 1508 1508 1509 1510 1511 1512 1512 1513 1515 1516 1517 1519 1520 1522 1523 1524 1524 1525 1526
1508 1507 1507 1506 1505 1505 1504 1504 1504 1504 1504 1504 1504 1504 1504 1505 1504 1505 1505 1505 1506 1507 1507 1509 1509 1510 1511 1512 1513 1514 1516 1517 1518 1519 1520 1521 1522 1522
1506 1506 1506 1505 1504 1503 1503 1502 1502 1502 1502 1502 1502 1502 1502 1502 1502 1502 1503 1503 1503 1504 1505 1506 1507 1508 1509 1510 1511 1512 1513 1514 1515 1516 1516 1517 1518 1519
1504 1504 1503 1503 1502 1502 1502 1501 1501 1500 1499 1500 1500 1499 1500 1500 1500 1500 1500 1500 1501 1501 1503 1504 1505 1506 1507 1508 1508 1509 1510 1511 1512 1512 1513 1513 1514 1515
1503 1502 1501 1501 1500 1499 1499 1499 1499 1499 1498 1497 1497 1497 1497 1497 1497 1498 1498 1498 1499 1500 1501 1501 1502 1503 1504 1505 1506 1506 1507 1508 1508 1509 1509 1510 1510 1511
1501 1500 1499 1499 1498 1497 1497 1497 1497 1497 1497 1496 1495 1494 1494 1494 1495 1495 1496 1497 1497 1498 1498 1499 1500 1501 1502 1503 1503 1504 1504 1505 1505 1506 1506 1506 1507 1507
1500 1499 1498 1497 1496 1495 1495 1495 1494 1494 1494 1494 1493 1493 1493 1493 1492 1493 1494 1495 1495 1496 1496 1497 1498 1498 1499 1500 1500 1501 1502 1502 1503 1503 1503 1503 1503 1504
1498 1498 1497 1495 1494 1493 1493 1492 1492 1492 1492 1492 1491 1491 1491 1491 1491 1491 1491 1492 1492 1493 1493 1494 1495 1495 1496 1496 1497 1498 1499 1499 1499 1500 1500 1499 1499 1500
1496 1495 1494 1493 1492 1491 1490 1489 1489 1489 1489 1489 1489 1489 1489 1489 1489 1488 1488 1489 1489 1489 1490 1490 1491 1492 1493 1494 1494 1494 1495 1496 1496 1496 1496 1496 1496 1496
1493 1492 1491 1491 1490 1489 1488 1487 1487 1487 1487 1486 1486 1486 1486 1486 1486 1486 1486 1486 1487 1487 1487 1487 1488 1489 1490 1490 1491 1491 1492 1492 1493 1493 1493 1493 1493 1493
1490 1490 1490 1489 1488 1487 1487 1486 1485 1485 1484 1484 1484 1484 1484 1484 1484 1484 1483 1484 1484 1484 1484 1484 1485 1485 1486 1487 1487 1487 1488 1488 1489 1489 1489 1489 1489 1489
1488 1488 1487 1487 1486 1485 1485 1484 1483 1482 1482 1481 1481 1481 1481 1481 1481 1481 1481 1481 1481 1481 1481 1481 1481 1482 1483 1483 1484 1484 1484 1485 1485 1485 1485 1485 1484 1484
1485 1485 1484 1484 1483 1483 1482 1482 1481 1480 1479 1478 1478 1478 1477 1477 1477 1477 1477 1478 1477 1477 1478 1478 1478 1478 1479 1478 1479 1480 1480 1480 1481 1480 1481 1481 1480 1480
1482 1482 1482 1481 1480 1480 1479 1478 1478 1477 1476 1476 1475 1475 1474 1474 1474 1474 1474 1474 1474 1474 1474 1474 1474 1475 1475 1475 1475 1475 1475 1476 1476 1476 1476 1476 1476 1475
1479 1479 1479 1478 1477 1476 1476 1475 1474 1474 1473 1473 1472 1471 1471 1471 1470 1470 1470 1470 1470 1470 1470 1470 1470 1470 1471 1471 1471 1470 1471 1471 1471 1471 1472 1472 1471 1471
1477 1476 1476 1475 1474 1474 1473 1472 1471 1471 1470 1469 1468 1468 1467 1467 1466 1466 1466 1466 1465 1466 1466 1466 1466 1466 1467 1466 1466 1466 1466 1466 1466 1466 1467 1467 1467 1466
1474 1473 1473 1472 1471 1470 1469 1469 1468 1467 1466 1466 1465 1464 1463 1463 1462 1462 1462 1462 1461 1461 1462 1462 1462 1462 1462 1462 1462 1462 1461 1462 1462 1462 1462 1462 1462 1462